Simultaneous Nadir Overpasses (SNOs) Predictions

Prediction of SNOs between GOES-16 and TERRA Satellite Orbit:

Table of predicted SNOs for the next 14.0 days since TLE Epoch: 12/26/2020
Index Date Time (GOES-16) GOES-16 Lat,Lon TERRA Lat,Lon Distance(km) Time Diff (sec)
1 12/27/2020 15:29:37 -0.02, -75.25 0.00, -75.26 2.73 80
2 12/29/2020 15:20:06 -0.01, -75.27 -0.67, -72.31 337.64 80
3 12/30/2020 03:41:30 0.01, -75.25 -0.44, -77.50 254.95 80
4 01/01/2021 03:26:38 0.00, -75.28 0.18, -74.54 84.38 80
5 01/01/2021 15:47:53 0.00, -75.31 0.94, -79.70 498.46 80
6 01/03/2021 03:14:26 -0.02, -75.31 0.80, -71.59 424.37 80
7 01/03/2021 15:35:41 0.02, -75.35 0.32, -76.74 158.27 80
8 01/05/2021 15:26:09 0.03, -75.39 -0.31, -73.78 182.31 80
9 01/06/2021 03:47:32 -0.03, -75.37 -0.80, -78.97 409.32 80
10 01/08/2021 03:35:21 -0.03, -75.42 -0.16, -76.02 68.46 80
